sat.trackr.live / text

‹ back to catalog

STARLINK-31549

NORAD 59360 · 2024-060N

PAYLOAD ACTIVE UNKNOWN

§ Identity

Operator
Country
US
Launch date
2024-03-31
Launch site
AFETR
Launch vehicle
Mass (kg)
RCS (m²)

Purposes: comms

External: N2YO · Heavens-Above · Gunter

§ Orbital elements

Epoch: 2026-09-20T07:53:25.004832Z

Period
94.27 min
Inclination
43.0042°
Eccentricity
0.0001292
Mean motion
15.27574457 rev/d
Perigee alt
482.2 km
Apogee alt
484.0 km
Semi-major
6,861.2 km
B*
1.8214e-5
RAAN
240.3585°
Arg perigee
280.6781°
Mean anomaly
79.3925°
Rev number
13,983

§ Raw data

STARLINK-315491 59360U 24060N   26263.32876163  .00000239  00000+0  18214-4 0  99932 59360  43.0042 240.3585 0001292 280.6781  79.3925 15.27574457139837

JSON: /api/v1/satellites/59360 · /tle

For live sub-satellite position, see the globe view (requires WebGL).

§ Visibility from observer

Set your observer location to see the next 7 days of passes ≥ 10°. The values pass through the URL so the page stays shareable.

No JS? Fill the form by hand. The geolocation button needs JavaScript.